Time,TemperatureF,DewpointF,PressureIn,WindDirection,WindDirectionDegrees,WindSpeedMPH,WindSpeedGustMPH,Humidity,HourlyPrecipIn,Conditions,Clouds,dailyrainin,SolarRadiationWatts/m^2,SoftwareType,DateUTC
2013-01-13 07:19:00,52.3,47.0,29.89,NW,319,2.0,5.0,83,0.00,,,0.00,0,weatherlink.com 1.10,2013-01-13 13:19:00,
2013-01-13 07:30:00,52.0,47.0,29.88,North,4,0.0,4.0,83,0.00,,,0.00,0,weatherlink.com 1.10,2013-01-13 13:30:00,
2013-01-13 07:45:00,50.8,46.0,29.89,NW,306,0.0,7.0,84,0.01,,,0.01,0,weatherlink.com 1.10,2013-01-13 13:45:00,
2013-01-13 08:00:00,50.4,46.0,29.89,NNW,327,0.0,4.0,84,0.01,,,0.01,7,weatherlink.com 1.10,2013-01-13 14:00:00,
2013-01-13 08:15:00,50.0,45.0,29.91,NNW,328,0.0,2.0,84,0.01,,,0.01,7,weatherlink.com 1.10,2013-01-13 14:15:00,
2013-01-13 08:30:00,49.4,45.0,29.92,NW,309,5.0,5.0,84,0.00,,,0.01,12,weatherlink.com 1.10,2013-01-13 14:30:00,
2013-01-13 08:45:00,48.8,44.0,29.95,NW,304,1.0,6.0,84,0.00,,,0.01,14,weatherlink.com 1.10,2013-01-13 14:45:00,
2013-01-13 09:00:00,48.3,44.0,29.96,NNW,333,0.0,6.0,84,0.01,,,0.02,19,weatherlink.com 1.10,2013-01-13 15:00:00,
2013-01-13 09:15:00,48.2,44.0,29.97,West,271,1.0,6.0,84,0.01,,,0.02,25,weatherlink.com 1.10,2013-01-13 15:15:00,
2013-01-13 09:30:00,48.0,43.0,29.96,North,4,0.0,7.0,84,0.01,,,0.02,47,weatherlink.com 1.10,2013-01-13 15:30:00,
2013-01-13 09:45:00,47.9,43.0,29.98,NNW,334,2.0,5.0,84,0.01,,,0.03,28,weatherlink.com 1.10,2013-01-13 15:45:00,
2013-01-13 10:00:00,48.1,44.0,29.97,NNE,13,1.0,2.0,84,0.01,,,0.03,40,weatherlink.com 1.10,2013-01-13 16:00:00,
2013-01-13 10:15:00,48.2,44.0,29.96,NNW,327,0.0,5.0,84,0.03,,,0.05,39,weatherlink.com 1.10,2013-01-13 16:15:00,
2013-01-13 10:30:00,48.4,44.0,29.96,NE,54,2.0,9.0,84,0.07,,,0.09,23,weatherlink.com 1.10,2013-01-13 16:30:00,
2013-01-13 10:45:00,48.1,44.0,30.01,West,269,0.0,5.0,85,0.17,,,0.20,9,weatherlink.com 1.10,2013-01-13 16:45:00,
2013-01-13 11:04:00,47.5,43.0,29.98,West,267,4.0,7.0,85,0.27,,,0.30,7,weatherlink.com 1.10,2013-01-13 17:04:00,
2013-01-13 11:15:00,46.8,43.0,30.02,SW,233,4.0,8.0,85,0.32,,,0.37,0,weatherlink.com 1.10,2013-01-13 17:15:00,
2013-01-13 11:30:00,46.6,42.0,29.97,NNW,342,3.0,6.0,85,0.53,,,0.63,23,weatherlink.com 1.10,2013-01-13 17:30:00,
2013-01-13 11:45:00,46.7,43.0,29.99,West,267,0.0,2.0,85,0.47,,,0.67,28,weatherlink.com 1.10,2013-01-13 17:45:00,
2013-01-13 12:00:00,47.0,43.0,29.97,NNW,341,2.0,7.0,85,0.48,,,0.71,79,weatherlink.com 1.10,2013-01-13 18:00:00,
2013-01-13 12:15:00,47.0,43.0,29.98,North,4,3.0,11.0,85,0.38,,,0.75,37,weatherlink.com 1.10,2013-01-13 18:15:00,
2013-01-13 12:30:00,46.4,42.0,29.98,NNW,345,1.0,7.0,85,0.15,,,0.78,67,weatherlink.com 1.10,2013-01-13 18:30:00,
2013-01-13 12:45:00,46.1,42.0,29.99,ENE,73,0.0,7.0,85,0.12,,,0.79,40,weatherlink.com 1.10,2013-01-13 18:45:00,
2013-01-13 12:58:00,46.0,41.7,29.98,NNW,340,2.0,2.0,85,0.23,,,0.85,70,Wunderground v.1.15,2013-01-13 18:58:00,
2013-01-13 13:03:00,46.1,41.8,29.98,North,4,2.0,11.0,85,0.07,,,0.85,72,Wunderground v.1.15,2013-01-13 19:03:00,
2013-01-13 13:47:00,46.7,43.0,30.00,NW,323,2.0,12.0,85,0.06,,,0.85,49,weatherlink.com 1.10,2013-01-13 19:47:00,
2013-01-13 14:01:00,46.8,43.0,30.00,North,359,1.0,8.0,85,0.00,,,0.85,69,weatherlink.com 1.10,2013-01-13 20:01:00,
2013-01-13 14:16:00,46.9,43.0,30.01,NNW,338,0.0,7.0,85,0.00,,,0.85,69,weatherlink.com 1.10,2013-01-13 20:16:00,
2013-01-13 14:31:00,46.7,43.0,30.01,NNW,329,2.0,5.0,85,0.00,,,0.85,62,weatherlink.com 1.10,2013-01-13 20:31:00,
2013-01-13 14:46:00,46.2,42.0,30.02,North,359,2.0,7.0,85,0.00,,,0.85,58,weatherlink.com 1.10,2013-01-13 20:46:00,
2013-01-13 15:01:00,46.1,42.0,30.04,North,9,4.0,11.0,85,0.00,,,0.85,84,weatherlink.com 1.10,2013-01-13 21:01:00,
2013-01-13 15:16:00,46.2,42.0,30.05,NNE,22,2.0,13.0,85,0.00,,,0.85,42,weatherlink.com 1.10,2013-01-13 21:16:00,
2013-01-13 15:31:00,46.1,42.0,30.05,NNE,19,1.0,6.0,85,0.00,,,0.85,46,weatherlink.com 1.10,2013-01-13 21:31:00,
2013-01-13 15:46:00,46.0,42.0,30.07,NNE,23,1.0,5.0,85,0.00,,,0.85,25,weatherlink.com 1.10,2013-01-13 21:46:00,
2013-01-13 16:01:00,45.8,42.0,30.08,NE,34,5.0,6.0,85,0.00,,,0.85,28,weatherlink.com 1.10,2013-01-13 22:01:00,
2013-01-13 16:16:00,45.7,42.0,30.08,North,9,5.0,5.0,85,0.00,,,0.85,21,weatherlink.com 1.10,2013-01-13 22:16:00,
2013-01-13 16:31:00,45.6,41.0,30.07,NW,318,6.0,9.0,85,0.00,,,0.85,21,weatherlink.com 1.10,2013-01-13 22:31:00,
2013-01-13 16:46:00,45.6,41.0,30.09,NNE,16,1.0,7.0,85,0.00,,,0.85,12,weatherlink.com 1.10,2013-01-13 22:46:00,
2013-01-13 17:16:00,45.5,41.0,30.09,North,4,2.0,5.0,85,0.00,,,0.85,0,weatherlink.com 1.10,2013-01-13 23:16:00,
2013-01-13 17:32:00,45.4,41.0,30.10,NNE,25,0.0,7.0,85,0.00,,,0.85,0,weatherlink.com 1.10,2013-01-13 23:32:00,
2013-01-13 17:47:00,45.4,41.0,30.11,NNE,17,2.0,5.0,85,0.00,,,0.85,0,weatherlink.com 1.10,2013-01-13 23:47:00,
2013-01-13 18:02:00,45.3,41.0,30.11,NNE,20,6.0,12.0,85,0.00,,,0.85,0,weatherlink.com 1.10,2013-01-14 00:02:00,
2013-01-13 18:17:00,45.1,41.0,30.12,NNE,24,4.0,9.0,85,0.00,,,0.85,0,weatherlink.com 1.10,2013-01-14 00:17:00,
2013-01-13 18:32:00,45.1,41.0,30.13,NNE,28,5.0,8.0,85,0.00,,,0.85,0,weatherlink.com 1.10,2013-01-14 00:32:00,
2013-01-13 18:47:00,45.0,41.0,30.13,NNE,17,2.0,7.0,85,0.00,,,0.85,0,weatherlink.com 1.10,2013-01-14 00:47:00,
2013-01-13 19:02:00,44.7,41.0,30.12,NNE,26,2.0,8.0,85,0.00,,,0.85,0,weatherlink.com 1.10,2013-01-14 01:02:00,
2013-01-13 19:17:00,44.8,41.0,30.13,NNE,23,2.0,9.0,85,0.00,,,0.85,0,weatherlink.com 1.10,2013-01-14 01:17:00,
2013-01-13 19:32:00,44.8,41.0,30.13,NNE,18,0.0,7.0,85,0.00,,,0.85,0,weatherlink.com 1.10,2013-01-14 01:32:00,
2013-01-13 19:47:00,44.7,41.0,30.13,NNE,18,5.0,7.0,85,0.00,,,0.85,0,weatherlink.com 1.10,2013-01-14 01:47:00,
2013-01-13 20:02:00,44.6,40.0,30.14,NNE,18,6.0,11.0,84,0.00,,,0.85,0,weatherlink.com 1.10,2013-01-14 02:02:00,
2013-01-13 20:17:00,44.6,40.0,30.13,NNE,19,2.0,9.0,84,0.00,,,0.85,0,weatherlink.com 1.10,2013-01-14 02:17:00,
2013-01-13 20:32:00,44.5,40.0,30.13,NNE,29,4.0,11.0,84,0.00,,,0.85,0,weatherlink.com 1.10,2013-01-14 02:32:00,
2013-01-13 20:48:00,44.4,40.0,30.14,NNE,19,0.0,8.0,84,0.00,,,0.85,0,weatherlink.com 1.10,2013-01-14 02:48:00,
2013-01-13 21:02:00,44.4,40.0,30.14,NE,34,7.0,12.0,84,0.00,,,0.85,0,weatherlink.com 1.10,2013-01-14 03:02:00,
2013-01-13 21:17:00,44.4,40.0,30.14,NNE,25,1.0,10.0,84,0.00,,,0.85,0,weatherlink.com 1.10,2013-01-14 03:17:00,
2013-01-13 21:33:00,44.3,40.0,30.14,NNE,26,4.0,8.0,85,0.00,,,0.85,0,weatherlink.com 1.10,2013-01-14 03:33:00,
2013-01-13 21:47:00,43.9,40.0,30.14,NNE,31,3.0,9.0,85,0.00,,,0.85,0,weatherlink.com 1.10,2013-01-14 03:47:00,
2013-01-13 22:02:00,43.6,39.0,30.15,NE,56,5.0,7.0,84,0.00,,,0.85,0,weatherlink.com 1.10,2013-01-14 04:02:00,
2013-01-13 22:17:00,43.3,39.0,30.14,NNE,16,1.0,9.0,84,0.00,,,0.85,0,weatherlink.com 1.10,2013-01-14 04:17:00,
2013-01-13 22:32:00,43.2,39.0,30.15,NNE,20,8.0,13.0,84,0.00,,,0.85,0,weatherlink.com 1.10,2013-01-14 04:32:00,
2013-01-13 22:47:00,43.1,39.0,30.15,NNE,23,5.0,11.0,84,0.00,,,0.85,0,weatherlink.com 1.10,2013-01-14 04:47:00,
2013-01-13 23:17:00,42.8,38.0,30.16,NNE,32,2.0,7.0,84,0.00,,,0.85,0,weatherlink.com 1.10,2013-01-14 05:17:00,
2013-01-13 23:32:00,42.8,38.0,30.17,NNE,30,1.0,8.0,84,0.00,,,0.85,0,weatherlink.com 1.10,2013-01-14 05:32:00,
2013-01-13 23:47:00,42.8,38.0,30.17,NNE,17,6.0,6.0,84,0.00,,,0.85,0,weatherlink.com 1.10,2013-01-14 05:47:00,